Weather History for Gallup, NM

Change the Weather History Date:

Tuesday, February 19, 2013

  Actual Average Record
Temperature  
Mean Temperature 36 °F -  
Max Temperature 55 °F 47 °F 68 °F (1981)
Min Temperature 18 °F 18 °F -1 °F (1975)
Degree Days  
Heating Degree Days 28    
Moisture  
Dew Point 9 °F    
Average Humidity 38    
Maximum Humidity 65    
Minimum Humidity 12    
Precipitation  
Precipitation 0.00 in - - ()
Sea Level Pressure  
Sea Level Pressure 29.86 in    
Wind  
Wind Speed 4 mph (SSW)    
Max Wind Speed 18 mph    
Max Gust Speed 28 mph    
Visibility 10 miles    
Events      
Averages and records for this station are not official NWS values.
T = Trace of Precipitation, MM = Missing Value Source: NWS Daily Summary

Daily Weather History Graph

Daily Weather History Graph

Search for Another Location

Airport:

Trip Planner

Search our weather history database for the weather conditions in past years. The results will help you decide how hot, cold, wet, or windy it might be!

Date:

Astronomy

Feb. 19, 2013 Rise Set
Actual Time 6:56 AM MST 6:01 PM MST
Civil Twilight 6:31 AM MST 6:27 PM MST
Nautical Twilight 6:01 AM MST 6:57 PM MST
Astronomical Twilight 5:31 AM MST 7:26 PM MST
Moon 12:41 PM MST (2/19) 2:25 AM MST (2/19)
Length of Visible Light 11h 56m
Length of Day
11h 04m
Waxing Gibbous, 68% of the Moon is Illuminated
Feb 19
Waxing Gibbous
Feb 25
Full
Mar 4
Last Quarter
Mar 11
New
Mar 19
First Quarter

Hourly Weather History & Observations

Time (MST) Temp. Windchill Dew Point Humidity Pressure Visibility Wind Dir Wind Speed Gust Speed Precip Events Conditions
12:53 AM 18.0 °F - 5.0 °F 57% 30.08 in 10.0 mi Calm Calm - N/A   Clear
1:53 AM 19.0 °F - 6.1 °F 57% 30.06 in 10.0 mi Calm Calm - N/A   Clear
2:53 AM 19.9 °F - 8.1 °F 60% 30.01 in 10.0 mi Calm Calm - N/A   Clear
3:53 AM 19.0 °F - 8.1 °F 62% 30.00 in 10.0 mi Calm Calm - N/A   Clear
4:53 AM 19.0 °F - 9.0 °F 65% 30.00 in 10.0 mi Calm Calm - N/A   Clear
5:53 AM 19.9 °F - 10.0 °F 65% 30.00 in 10.0 mi Calm Calm - N/A   Clear
6:53 AM 21.0 °F - 10.0 °F 63% 30.06 in 10.0 mi Calm Calm - N/A   Clear
7:53 AM 23.0 °F - 10.9 °F 60% 30.12 in 10.0 mi Calm Calm - N/A   Clear
8:53 AM 30.0 °F - 10.0 °F 43% 30.06 in 10.0 mi Calm Calm - N/A   Clear
9:53 AM 39.9 °F - 12.9 °F 33% 29.98 in 10.0 mi Calm Calm - N/A   Clear
11:53 AM 55.0 °F - 7.0 °F 15% 29.81 in 10.0 mi SSW 10.4 mph 21.9 mph N/A   Clear
12:53 PM 55.9 °F - 3.9 °F 12% 29.79 in 10.0 mi WSW 16.1 mph - N/A   Clear
1:53 PM 55.0 °F - 1.9 °F 12% 29.77 in 10.0 mi SW 15.0 mph 21.9 mph N/A   Clear
2:53 PM 55.9 °F - 5.0 °F 13% 29.74 in 10.0 mi SW 18.4 mph 27.6 mph N/A   Clear
3:53 PM 55.9 °F - 7.0 °F 14% 29.71 in 10.0 mi SSW 13.8 mph - N/A   Clear
5:53 PM 50.0 °F - 6.1 °F 17% 29.72 in 10.0 mi WSW 10.4 mph - N/A   Clear
6:53 PM 44.1 °F 39.5 °F 8.1 °F 23% 29.75 in 10.0 mi SSW 8.1 mph - N/A   Clear
7:53 PM 41.0 °F 35.8 °F 9.0 °F 27% 29.76 in 10.0 mi South 8.1 mph - N/A   Clear
8:53 PM 39.9 °F 34.5 °F 10.0 °F 29% 29.71 in 10.0 mi South 8.1 mph - N/A   Clear
9:53 PM 37.0 °F 32.4 °F 12.0 °F 36% 29.67 in 10.0 mi SSE 5.8 mph - N/A   Clear
10:53 PM 36.0 °F 29.6 °F 12.9 °F 39% 29.61 in 10.0 mi South 8.1 mph - N/A   Clear
11:53 PM 34.0 °F - 14.0 °F 44% 29.55 in 10.0 mi Calm Calm - N/A   Clear